Time,TemperatureF,DewpointF,PressureIn,WindDirection,WindDirectionDegrees,WindSpeedMPH,WindSpeedGustMPH,Humidity,HourlyPrecipIn,Conditions,Clouds,dailyrainin,SoftwareType,DateUTC
2013-08-02 00:03:00,65.8,62.5,29.72,NW,316,0.0,1.0,89,0.00,,,0.00,Wunderground v.1.15,2013-08-02 05:03:00,
2013-08-02 00:09:00,65.8,62.1,29.72,WNW,299,0.0,1.0,88,0.00,,,0.00,Wunderground v.1.15,2013-08-02 05:09:00,
2013-08-02 00:14:00,65.9,62.2,29.72,WNW,299,0.0,1.0,88,0.00,,,0.00,Wunderground v.1.15,2013-08-02 05:14:00,
2013-08-02 00:19:00,65.8,62.1,29.71,WNW,300,0.0,1.0,88,0.00,,,0.00,Wunderground v.1.15,2013-08-02 05:19:00,
2013-08-02 00:24:00,65.7,61.7,29.71,WNW,299,0.0,1.0,87,0.00,,,0.00,Wunderground v.1.15,2013-08-02 05:24:00,
2013-08-02 00:29:00,65.7,61.4,29.71,WNW,300,0.0,1.0,86,0.00,,,0.00,Wunderground v.1.15,2013-08-02 05:29:00,
2013-08-02 00:35:00,65.8,61.5,29.71,WNW,299,0.0,1.0,86,0.00,,,0.00,Wunderground v.1.15,2013-08-02 05:35:00,
2013-08-02 00:40:00,65.8,61.5,29.71,WNW,299,0.0,1.0,86,0.00,,,0.00,Wunderground v.1.15,2013-08-02 05:40:00,
2013-08-02 00:45:00,65.7,61.4,29.71,WNW,299,0.0,1.0,86,0.00,,,0.00,Wunderground v.1.15,2013-08-02 05:45:00,
2013-08-02 00:50:00,65.6,61.0,29.71,WNW,299,0.0,1.0,85,0.00,,,0.00,Wunderground v.1.15,2013-08-02 05:50:00,
2013-08-02 00:55:00,65.4,60.8,29.70,WNW,299,0.0,1.0,85,0.00,,,0.00,Wunderground v.1.15,2013-08-02 05:55:00,
2013-08-02 01:01:00,65.2,60.2,29.70,WNW,299,0.0,1.0,84,0.00,,,0.00,Wunderground v.1.15,2013-08-02 06:01:00,
2013-08-02 01:07:00,65.1,60.5,29.70,WNW,300,0.0,1.0,85,0.00,,,0.00,Wunderground v.1.15,2013-08-02 06:07:00,
2013-08-02 01:12:00,64.9,60.3,29.70,WNW,299,0.0,1.0,85,0.00,,,0.00,Wunderground v.1.15,2013-08-02 06:12:00,
2013-08-02 01:18:00,64.7,60.1,29.70,WNW,300,0.0,1.0,85,0.00,,,0.00,Wunderground v.1.15,2013-08-02 06:18:00,
2013-08-02 01:23:00,64.6,60.0,29.69,WNW,300,0.0,1.0,85,0.00,,,0.00,Wunderground v.1.15,2013-08-02 06:23:00,
2013-08-02 01:28:00,64.6,60.0,29.70,WNW,301,0.0,1.0,85,0.00,,,0.00,Wunderground v.1.15,2013-08-02 06:28:00,
2013-08-02 01:33:00,64.4,59.8,29.70,WNW,301,0.0,1.0,85,0.00,,,0.00,Wunderground v.1.15,2013-08-02 06:33:00,
2013-08-02 01:38:00,64.3,60.0,29.70,WNW,299,0.0,1.0,86,0.00,,,0.00,Wunderground v.1.15,2013-08-02 06:38:00,
2013-08-02 01:43:00,64.2,59.9,29.71,WNW,299,0.0,1.0,86,0.00,,,0.00,Wunderground v.1.15,2013-08-02 06:43:00,
2013-08-02 01:49:00,64.0,60.1,29.71,WNW,300,0.0,1.0,87,0.00,,,0.00,Wunderground v.1.15,2013-08-02 06:49:00,
2013-08-02 01:54:00,63.6,60.0,29.71,WNW,299,0.0,1.0,88,0.00,,,0.00,Wunderground v.1.15,2013-08-02 06:54:00,
2013-08-02 01:59:00,63.3,59.4,29.72,West,271,0.0,1.0,87,0.00,,,0.00,Wunderground v.1.15,2013-08-02 06:59:00,
2013-08-02 02:04:00,63.2,59.3,29.72,West,262,0.0,1.0,87,0.00,,,0.00,Wunderground v.1.15,2013-08-02 07:04:00,
2013-08-02 02:09:00,63.1,59.5,29.72,West,262,0.0,1.0,88,0.00,,,0.00,Wunderground v.1.15,2013-08-02 07:09:00,
2013-08-02 02:15:00,62.9,59.3,29.72,West,261,0.0,1.0,88,0.00,,,0.00,Wunderground v.1.15,2013-08-02 07:15:00,
2013-08-02 02:20:00,62.6,59.0,29.72,West,261,1.0,1.0,88,0.00,,,0.00,Wunderground v.1.15,2013-08-02 07:20:00,
2013-08-02 02:25:00,62.5,58.6,29.73,West,260,0.0,1.0,87,0.00,,,0.00,Wunderground v.1.15,2013-08-02 07:25:00,
2013-08-02 02:30:00,62.5,58.6,29.72,West,260,0.0,1.0,87,0.00,,,0.00,Wunderground v.1.15,2013-08-02 07:30:00,
2013-08-02 02:36:00,62.6,58.7,29.72,West,260,0.0,1.0,87,0.00,,,0.00,Wunderground v.1.15,2013-08-02 07:36:00,
2013-08-02 02:41:00,62.5,58.6,29.72,West,260,0.0,1.0,87,0.00,,,0.00,Wunderground v.1.15,2013-08-02 07:41:00,
2013-08-02 02:46:00,62.4,58.8,29.72,West,260,0.0,1.0,88,0.00,,,0.00,Wunderground v.1.15,2013-08-02 07:46:00,
2013-08-02 02:51:00,62.2,58.3,29.72,West,260,0.0,1.0,87,0.00,,,0.00,Wunderground v.1.15,2013-08-02 07:51:00,
2013-08-02 02:56:00,62.1,58.5,29.72,West,260,0.0,1.0,88,0.00,,,0.00,Wunderground v.1.15,2013-08-02 07:56:00,
2013-08-02 03:01:00,62.0,58.4,29.72,West,262,0.0,1.0,88,0.00,,,0.00,Wunderground v.1.15,2013-08-02 08:01:00,
2013-08-02 03:07:00,61.7,58.1,29.71,West,260,0.0,1.0,88,0.00,,,0.00,Wunderground v.1.15,2013-08-02 08:07:00,
2013-08-02 03:12:00,61.5,58.2,29.71,West,260,0.0,1.0,89,0.00,,,0.00,Wunderground v.1.15,2013-08-02 08:12:00,
2013-08-02 03:17:00,61.3,58.0,29.71,West,260,0.0,1.0,89,0.00,,,0.00,Wunderground v.1.15,2013-08-02 08:17:00,
2013-08-02 03:22:00,61.1,58.1,29.71,West,260,0.0,1.0,90,0.00,,,0.00,Wunderground v.1.15,2013-08-02 08:22:00,
2013-08-02 03:27:00,61.0,58.0,29.71,West,260,0.0,1.0,90,0.00,,,0.00,Wunderground v.1.15,2013-08-02 08:27:00,
2013-08-02 03:33:00,61.0,58.0,29.72,West,260,0.0,1.0,90,0.00,,,0.00,Wunderground v.1.15,2013-08-02 08:33:00,
2013-08-02 03:38:00,60.9,57.9,29.72,West,260,0.0,1.0,90,0.00,,,0.00,Wunderground v.1.15,2013-08-02 08:38:00,
2013-08-02 03:43:00,60.9,57.9,29.72,West,260,0.0,1.0,90,0.00,,,0.00,Wunderground v.1.15,2013-08-02 08:43:00,
2013-08-02 03:48:00,60.7,57.7,29.72,West,260,0.0,1.0,90,0.00,,,0.00,Wunderground v.1.15,2013-08-02 08:48:00,
2013-08-02 03:53:00,60.6,57.3,29.72,West,260,0.0,1.0,89,0.00,,,0.00,Wunderground v.1.15,2013-08-02 08:53:00,
2013-08-02 03:59:00,60.4,57.1,29.73,West,260,0.0,1.0,89,0.00,,,0.00,Wunderground v.1.15,2013-08-02 08:59:00,
2013-08-02 04:04:00,60.2,57.3,29.73,West,260,0.0,1.0,90,0.00,,,0.00,Wunderground v.1.15,2013-08-02 09:04:00,
2013-08-02 04:09:00,60.0,57.1,29.73,West,260,0.0,1.0,90,0.00,,,0.00,Wunderground v.1.15,2013-08-02 09:09:00,
2013-08-02 04:14:00,59.9,57.0,29.73,West,260,0.0,1.0,90,0.00,,,0.00,Wunderground v.1.15,2013-08-02 09:14:00,
2013-08-02 04:20:00,59.9,57.0,29.73,WSW,257,0.0,1.0,90,0.00,,,0.00,Wunderground v.1.15,2013-08-02 09:20:00,
2013-08-02 04:25:00,59.8,56.9,29.73,WSW,257,0.0,1.0,90,0.00,,,0.00,Wunderground v.1.15,2013-08-02 09:25:00,
2013-08-02 04:30:00,59.7,56.8,29.73,WSW,257,0.0,1.0,90,0.00,,,0.00,Wunderground v.1.15,2013-08-02 09:30:00,
2013-08-02 04:35:00,59.7,57.1,29.73,WSW,257,0.0,1.0,91,0.00,,,0.00,Wunderground v.1.15,2013-08-02 09:35:00,
2013-08-02 04:40:00,59.6,56.7,29.73,WSW,257,0.0,1.0,90,0.00,,,0.00,Wunderground v.1.15,2013-08-02 09:40:00,
2013-08-02 04:45:00,59.6,56.7,29.73,WSW,257,0.0,1.0,90,0.00,,,0.00,Wunderground v.1.15,2013-08-02 09:45:00,
2013-08-02 04:51:00,59.6,56.7,29.72,WSW,257,0.0,1.0,90,0.00,,,0.00,Wunderground v.1.15,2013-08-02 09:51:00,
2013-08-02 04:56:00,59.5,56.6,29.72,WSW,257,0.0,1.0,90,0.00,,,0.00,Wunderground v.1.15,2013-08-02 09:56:00,
2013-08-02 05:01:00,59.3,56.4,29.73,West,259,0.0,1.0,90,0.00,,,0.00,Wunderground v.1.15,2013-08-02 10:01:00,
2013-08-02 05:06:00,59.3,56.4,29.73,WSW,255,0.0,1.0,90,0.00,,,0.00,Wunderground v.1.15,2013-08-02 10:06:00,
2013-08-02 05:12:00,59.2,56.3,29.73,WSW,256,0.0,1.0,90,0.00,,,0.00,Wunderground v.1.15,2013-08-02 10:12:00,
2013-08-02 05:17:00,59.1,56.2,29.73,WSW,256,0.0,1.0,90,0.00,,,0.00,Wunderground v.1.15,2013-08-02 10:17:00,
2013-08-02 05:22:00,59.0,56.1,29.73,WSW,256,0.0,1.0,90,0.00,,,0.00,Wunderground v.1.15,2013-08-02 10:22:00,
2013-08-02 05:27:00,58.9,56.0,29.73,WSW,256,0.0,1.0,90,0.00,,,0.00,Wunderground v.1.15,2013-08-02 10:27:00,
2013-08-02 05:32:00,58.8,56.2,29.73,WSW,256,0.0,1.0,91,0.00,,,0.00,Wunderground v.1.15,2013-08-02 10:32:00,
2013-08-02 05:37:00,58.7,56.1,29.74,WSW,256,0.0,1.0,91,0.00,,,0.00,Wunderground v.1.15,2013-08-02 10:37:00,
2013-08-02 05:43:00,58.6,56.0,29.74,WSW,255,0.0,1.0,91,0.00,,,0.00,Wunderground v.1.15,2013-08-02 10:43:00,
2013-08-02 05:48:00,58.4,55.8,29.74,WSW,256,0.0,1.0,91,0.00,,,0.00,Wunderground v.1.15,2013-08-02 10:48:00,
2013-08-02 05:53:00,58.4,55.8,29.74,WSW,256,0.0,1.0,91,0.00,,,0.00,Wunderground v.1.15,2013-08-02 10:53:00,
2013-08-02 05:58:00,58.3,55.7,29.74,WSW,255,0.0,1.0,91,0.00,,,0.00,Wunderground v.1.15,2013-08-02 10:58:00,
2013-08-02 06:03:00,58.2,55.6,29.74,WSW,256,0.0,1.0,91,0.00,,,0.00,Wunderground v.1.15,2013-08-02 11:03:00,
2013-08-02 06:08:00,58.1,55.5,29.74,WSW,256,0.0,1.0,91,0.00,,,0.00,Wunderground v.1.15,2013-08-02 11:08:00,
2013-08-02 06:14:00,58.0,55.4,29.74,WSW,256,0.0,1.0,91,0.00,,,0.00,Wunderground v.1.15,2013-08-02 11:14:00,
2013-08-02 06:19:00,57.9,55.3,29.74,WSW,256,0.0,1.0,91,0.00,,,0.00,Wunderground v.1.15,2013-08-02 11:19:00,
2013-08-02 06:22:00,57.9,55.3,29.74,WSW,256,0.0,1.0,91,0.00,,,0.00,Wunderground v.1.15,2013-08-02 11:22:00,
2013-08-02 06:27:00,57.9,55.6,29.74,WSW,255,0.0,1.0,92,0.00,,,0.00,Wunderground v.1.15,2013-08-02 11:27:00,
2013-08-02 06:32:00,57.9,55.6,29.74,WSW,256,0.0,1.0,92,0.00,,,0.00,Wunderground v.1.15,2013-08-02 11:32:00,
2013-08-02 06:37:00,57.8,55.5,29.75,WSW,256,0.0,1.0,92,0.00,,,0.00,Wunderground v.1.15,2013-08-02 11:37:00,
2013-08-02 06:42:00,57.8,55.5,29.75,WSW,256,0.0,1.0,92,0.00,,,0.00,Wunderground v.1.15,2013-08-02 11:42:00,
2013-08-02 06:48:00,57.8,55.5,29.75,WSW,255,0.0,1.0,92,0.00,,,0.00,Wunderground v.1.15,2013-08-02 11:48:00,
2013-08-02 06:53:00,57.9,55.6,29.75,WSW,256,0.0,1.0,92,0.00,,,0.00,Wunderground v.1.15,2013-08-02 11:53:00,
2013-08-02 06:58:00,58.0,55.7,29.75,WSW,255,0.0,1.0,92,0.00,,,0.00,Wunderground v.1.15,2013-08-02 11:58:00,
2013-08-02 06:59:00,58.0,55.7,29.75,WSW,255,0.0,1.0,92,0.00,,,0.00,Wunderground v.1.15,2013-08-02 11:59:00,
2013-08-02 07:04:00,58.2,55.9,29.75,WSW,256,0.0,1.0,92,0.00,,,0.00,Wunderground v.1.15,2013-08-02 12:04:00,
2013-08-02 07:10:00,58.4,56.1,29.75,WSW,255,0.0,1.0,92,0.00,,,0.00,Wunderground v.1.15,2013-08-02 12:10:00,
2013-08-02 07:15:00,58.5,56.2,29.75,WSW,255,0.0,1.0,92,0.00,,,0.00,Wunderground v.1.15,2013-08-02 12:15:00,
2013-08-02 07:20:00,58.6,56.3,29.75,WSW,256,0.0,1.0,92,0.00,,,0.00,Wunderground v.1.15,2013-08-02 12:20:00,
2013-08-02 07:25:00,58.8,56.5,29.76,WSW,255,0.0,1.0,92,0.00,,,0.00,Wunderground v.1.15,2013-08-02 12:25:00,
2013-08-02 07:31:00,59.0,56.7,29.76,WSW,255,0.0,1.0,92,0.00,,,0.00,Wunderground v.1.15,2013-08-02 12:31:00,
2013-08-02 07:36:00,59.2,56.9,29.76,WSW,256,0.0,1.0,92,0.00,,,0.00,Wunderground v.1.15,2013-08-02 12:36:00,
2013-08-02 07:41:00,59.5,57.2,29.76,WSW,256,0.0,1.0,92,0.00,,,0.00,Wunderground v.1.15,2013-08-02 12:41:00,
2013-08-02 07:46:00,59.9,57.6,29.76,WSW,256,0.0,1.0,92,0.00,,,0.00,Wunderground v.1.15,2013-08-02 12:46:00,
2013-08-02 07:52:00,60.2,57.9,29.76,WSW,256,0.0,1.0,92,0.00,,,0.00,Wunderground v.1.15,2013-08-02 12:52:00,
2013-08-02 07:57:00,60.6,58.3,29.76,SE,141,0.0,1.0,92,0.00,,,0.00,Wunderground v.1.15,2013-08-02 12:57:00,
2013-08-02 08:03:00,61.1,58.5,29.77,South,190,0.0,1.0,91,0.00,,,0.00,Wunderground v.1.15,2013-08-02 13:03:00,
2013-08-02 08:08:00,61.3,58.7,29.77,SSW,193,0.0,1.0,91,0.00,,,0.00,Wunderground v.1.15,2013-08-02 13:08:00,
2013-08-02 08:13:00,61.5,58.8,29.77,SSW,194,0.0,1.0,91,0.00,,,0.00,Wunderground v.1.15,2013-08-02 13:13:00,
2013-08-02 08:18:00,61.8,58.8,29.77,SSW,193,0.0,1.0,90,0.00,,,0.00,Wunderground v.1.15,2013-08-02 13:18:00,
2013-08-02 08:23:00,62.1,58.8,29.77,ESE,115,0.0,1.0,89,0.00,,,0.00,Wunderground v.1.15,2013-08-02 13:23:00,
2013-08-02 08:29:00,62.6,59.3,29.77,ESE,117,0.0,1.0,89,0.00,,,0.00,Wunderground v.1.15,2013-08-02 13:29:00,
2013-08-02 08:34:00,63.0,59.7,29.77,ESE,117,0.0,1.0,89,0.00,,,0.00,Wunderground v.1.15,2013-08-02 13:34:00,
2013-08-02 08:40:00,63.3,59.7,29.77,ENE,77,0.0,1.0,88,0.00,,,0.00,Wunderground v.1.15,2013-08-02 13:40:00,
2013-08-02 08:45:00,63.7,59.4,29.77,WSW,250,0.0,1.0,86,0.00,,,0.00,Wunderground v.1.15,2013-08-02 13:45:00,
2013-08-02 08:50:00,64.3,59.0,29.77,WSW,240,0.0,1.0,83,0.00,,,0.00,Wunderground v.1.15,2013-08-02 13:50:00,
2013-08-02 08:55:00,64.8,60.5,29.77,SE,131,0.0,1.0,86,0.00,,,0.00,Wunderground v.1.15,2013-08-02 13:55:00,
2013-08-02 09:00:00,65.0,59.4,29.77,SE,131,0.0,1.0,82,0.00,,,0.00,Wunderground v.1.15,2013-08-02 14:00:00,
2013-08-02 09:05:00,65.4,59.1,29.77,ENE,77,0.0,1.0,80,0.00,,,0.00,Wunderground v.1.15,2013-08-02 14:05:00,
2013-08-02 09:10:00,65.7,59.7,29.76,ENE,76,0.0,1.0,81,0.00,,,0.00,Wunderground v.1.15,2013-08-02 14:10:00,
2013-08-02 09:16:00,66.0,59.7,29.77,ENE,68,0.0,2.0,80,0.00,,,0.00,Wunderground v.1.15,2013-08-02 14:16:00,
2013-08-02 09:21:00,66.4,59.0,29.77,SW,235,1.0,1.0,77,0.00,,,0.00,Wunderground v.1.15,2013-08-02 14:21:00,
2013-08-02 09:26:00,66.9,59.1,29.78,SSE,155,1.0,1.0,76,0.00,,,0.00,Wunderground v.1.15,2013-08-02 14:26:00,
2013-08-02 09:31:00,67.4,59.9,29.78,West,273,0.0,1.0,77,0.00,,,0.00,Wunderground v.1.15,2013-08-02 14:31:00,
2013-08-02 09:36:00,67.8,60.3,29.78,SE,136,0.0,3.0,77,0.00,,,0.00,Wunderground v.1.15,2013-08-02 14:36:00,
2013-08-02 09:41:00,68.0,59.0,29.78,NW,315,1.0,1.0,73,0.00,,,0.00,Wunderground v.1.15,2013-08-02 14:41:00,
2013-08-02 09:47:00,68.4,60.2,29.78,East,84,0.0,2.0,75,0.00,,,0.00,Wunderground v.1.15,2013-08-02 14:47:00,
2013-08-02 09:52:00,68.8,59.0,29.78,East,82,1.0,3.0,71,0.00,,,0.00,Wunderground v.1.15,2013-08-02 14:52:00,
2013-08-02 09:57:00,69.1,59.3,29.77,SW,228,1.0,3.0,71,0.00,,,0.00,Wunderground v.1.15,2013-08-02 14:57:00,
2013-08-02 10:02:00,69.5,58.1,29.78,East,85,1.0,2.0,67,0.00,,,0.00,Wunderground v.1.15,2013-08-02 15:02:00,
2013-08-02 10:07:00,69.8,58.8,29.78,East,96,0.0,2.0,68,0.00,,,0.00,Wunderground v.1.15,2013-08-02 15:07:00,
2013-08-02 10:12:00,70.2,59.6,29.78,SE,134,1.0,1.0,69,0.00,,,0.00,Wunderground v.1.15,2013-08-02 15:12:00,
2013-08-02 10:18:00,70.9,60.2,29.78,ENE,70,1.0,3.0,69,0.00,,,0.00,Wunderground v.1.15,2013-08-02 15:18:00,
2013-08-02 10:23:00,71.4,59.4,29.77,East,91,1.0,3.0,66,0.00,,,0.00,Wunderground v.1.15,2013-08-02 15:23:00,
2013-08-02 10:28:00,70.8,58.0,29.77,ENE,77,2.0,3.0,64,0.00,,,0.00,Wunderground v.1.15,2013-08-02 15:28:00,
2013-08-02 10:33:00,70.6,58.7,29.77,SW,225,1.0,2.0,66,0.00,,,0.00,Wunderground v.1.15,2013-08-02 15:33:00,
2013-08-02 10:38:00,70.9,60.2,29.77,ESE,116,1.0,2.0,69,0.00,,,0.00,Wunderground v.1.15,2013-08-02 15:38:00,
2013-08-02 10:44:00,71.3,60.6,29.78,ESE,103,0.0,1.0,69,0.00,,,0.00,Wunderground v.1.15,2013-08-02 15:44:00,
2013-08-02 10:49:00,71.6,60.1,29.78,WSW,237,0.0,2.0,67,0.00,,,0.00,Wunderground v.1.15,2013-08-02 15:49:00,
2013-08-02 10:54:00,71.9,59.9,29.77,SE,144,0.0,1.0,66,0.00,,,0.00,Wunderground v.1.15,2013-08-02 15:54:00,
2013-08-02 10:59:00,72.4,60.4,29.78,ENE,73,0.0,1.0,66,0.00,,,0.00,Wunderground v.1.15,2013-08-02 15:59:00,
2013-08-02 11:04:00,72.6,60.6,29.78,SW,228,0.0,1.0,66,0.00,,,0.00,Wunderground v.1.15,2013-08-02 16:04:00,
2013-08-02 11:10:00,72.9,60.4,29.78,ENE,74,0.0,1.0,65,0.00,,,0.00,Wunderground v.1.15,2013-08-02 16:10:00,
2013-08-02 11:15:00,72.7,61.9,29.78,NNE,13,1.0,1.0,69,0.00,,,0.00,Wunderground v.1.15,2013-08-02 16:15:00,
2013-08-02 11:20:00,72.9,61.3,29.78,ENE,72,1.0,1.0,67,0.00,,,0.00,Wunderground v.1.15,2013-08-02 16:20:00,
2013-08-02 11:25:00,72.9,60.9,29.78,NNE,27,1.0,2.0,66,0.00,,,0.00,Wunderground v.1.15,2013-08-02 16:25:00,
2013-08-02 11:30:00,73.1,58.4,29.78,ENE,68,1.0,2.0,60,0.00,,,0.00,Wunderground v.1.15,2013-08-02 16:30:00,
2013-08-02 11:36:00,72.9,59.6,29.78,East,96,2.0,4.0,63,0.00,,,0.00,Wunderground v.1.15,2013-08-02 16:36:00,
2013-08-02 11:40:00,73.2,58.9,29.78,NNE,27,2.0,4.0,61,0.00,,,0.00,Wunderground v.1.15,2013-08-02 16:40:00,
2013-08-02 11:46:00,73.3,58.6,29.78,East,99,1.0,4.0,60,0.00,,,0.00,Wunderground v.1.15,2013-08-02 16:46:00,
2013-08-02 11:51:00,72.8,58.6,29.78,ENE,60,1.0,2.0,61,0.00,,,0.00,Wunderground v.1.15,2013-08-02 16:51:00,
2013-08-02 11:56:00,72.7,57.5,29.78,ENE,70,2.0,4.0,59,0.00,,,0.00,Wunderground v.1.15,2013-08-02 16:56:00,
2013-08-02 12:02:00,72.8,58.1,29.78,NNW,340,2.0,3.0,60,0.00,,,0.00,Wunderground v.1.15,2013-08-02 17:02:00,
2013-08-02 12:07:00,72.8,57.6,29.78,East,85,2.0,3.0,59,0.00,,,0.00,Wunderground v.1.15,2013-08-02 17:07:00,
2013-08-02 12:12:00,73.3,58.1,29.78,ENE,76,1.0,2.0,59,0.00,,,0.00,Wunderground v.1.15,2013-08-02 17:12:00,
2013-08-02 12:17:00,73.2,58.0,29.78,NNE,20,1.0,4.0,59,0.00,,,0.00,Wunderground v.1.15,2013-08-02 17:17:00,
2013-08-02 12:22:00,73.2,57.5,29.78,North,6,2.0,2.0,58,0.00,,,0.00,Wunderground v.1.15,2013-08-02 17:22:00,
2013-08-02 12:28:00,73.5,58.8,29.78,NE,50,1.0,2.0,60,0.00,,,0.00,Wunderground v.1.15,2013-08-02 17:28:00,
2013-08-02 12:33:00,73.2,58.0,29.78,ENE,70,2.0,2.0,59,0.00,,,0.00,Wunderground v.1.15,2013-08-02 17:33:00,
2013-08-02 12:38:00,73.2,57.1,29.78,WNW,293,2.0,2.0,57,0.00,,,0.00,Wunderground v.1.15,2013-08-02 17:38:00,
2013-08-02 12:43:00,73.9,58.7,29.78,ENE,65,1.0,2.0,59,0.00,,,0.00,Wunderground v.1.15,2013-08-02 17:43:00,
2013-08-02 12:48:00,74.1,58.9,29.78,SSE,153,1.0,3.0,59,0.00,,,0.00,Wunderground v.1.15,2013-08-02 17:48:00,
2013-08-02 12:54:00,74.6,59.8,29.78,WNW,295,1.0,2.0,60,0.00,,,0.00,Wunderground v.1.15,2013-08-02 17:54:00,
2013-08-02 12:59:00,74.9,60.1,29.78,SE,132,1.0,2.0,60,0.00,,,0.00,Wunderground v.1.15,2013-08-02 17:59:00,
2013-08-02 13:04:00,75.1,58.3,29.78,ESE,110,1.0,2.0,56,0.00,,,0.00,Wunderground v.1.15,2013-08-02 18:04:00,
2013-08-02 13:09:00,74.6,57.4,29.78,WSW,249,1.0,4.0,55,0.00,,,0.00,Wunderground v.1.15,2013-08-02 18:09:00,
2013-08-02 13:14:00,74.3,58.1,29.78,SW,233,2.0,4.0,57,0.00,,,0.00,Wunderground v.1.15,2013-08-02 18:14:00,
2013-08-02 13:20:00,74.7,59.9,29.79,West,264,1.0,1.0,60,0.00,,,0.00,Wunderground v.1.15,2013-08-02 18:20:00,
2013-08-02 13:25:00,74.8,58.5,29.79,WSW,250,1.0,2.0,57,0.00,,,0.00,Wunderground v.1.15,2013-08-02 18:25:00,
2013-08-02 13:29:00,75.3,58.0,29.79,SE,128,1.0,1.0,55,0.00,,,0.00,Wunderground v.1.15,2013-08-02 18:29:00,
2013-08-02 13:35:00,76.1,59.3,29.79,West,267,1.0,2.0,56,0.00,,,0.00,Wunderground v.1.15,2013-08-02 18:35:00,
2013-08-02 13:41:00,75.6,57.3,29.80,WSW,248,2.0,4.0,53,0.00,,,0.00,Wunderground v.1.15,2013-08-02 18:41:00,
2013-08-02 13:46:00,75.6,58.8,29.80,West,273,2.0,4.0,56,0.00,,,0.00,Wunderground v.1.15,2013-08-02 18:46:00,
2013-08-02 13:51:00,76.1,59.3,29.80,ESE,107,1.0,1.0,56,0.00,,,0.00,Wunderground v.1.15,2013-08-02 18:51:00,
2013-08-02 13:56:00,76.1,56.7,29.80,South,188,1.0,5.0,51,0.00,,,0.00,Wunderground v.1.15,2013-08-02 18:56:00,
2013-08-02 14:01:00,76.4,59.0,29.80,East,89,1.0,1.0,55,0.00,,,0.00,Wunderground v.1.15,2013-08-02 19:01:00,
2013-08-02 14:06:00,76.8,56.2,29.80,West,262,1.0,3.0,49,0.00,,,0.00,Wunderground v.1.15,2013-08-02 19:06:00,
2013-08-02 14:12:00,76.1,58.2,29.80,ENE,70,1.0,1.0,54,0.00,,,0.00,Wunderground v.1.15,2013-08-02 19:12:00,
2013-08-02 14:17:00,75.6,57.3,29.80,WSW,255,2.0,3.0,53,0.00,,,0.00,Wunderground v.1.15,2013-08-02 19:17:00,
2013-08-02 14:22:00,75.8,58.0,29.81,WNW,297,1.0,1.0,54,0.00,,,0.00,Wunderground v.1.15,2013-08-02 19:22:00,
2013-08-02 14:27:00,76.0,58.2,29.81,SSW,210,1.0,2.0,54,0.00,,,0.00,Wunderground v.1.15,2013-08-02 19:27:00,
2013-08-02 14:31:00,75.5,54.4,29.80,WSW,248,2.0,4.0,48,0.00,,,0.00,Wunderground v.1.15,2013-08-02 19:31:00,
2013-08-02 14:37:00,75.1,56.3,29.80,West,260,2.0,4.0,52,0.00,,,0.00,Wunderground v.1.15,2013-08-02 19:37:00,
2013-08-02 14:41:00,75.2,56.9,29.80,WNW,299,2.0,4.0,53,0.00,,,0.00,Wunderground v.1.15,2013-08-02 19:41:00,
2013-08-02 14:47:00,75.3,55.9,29.81,East,95,2.0,4.0,51,0.00,,,0.00,Wunderground v.1.15,2013-08-02 19:47:00,
2013-08-02 14:52:00,75.5,55.0,29.80,North,349,1.0,1.0,49,0.00,,,0.00,Wunderground v.1.15,2013-08-02 19:52:00,
2013-08-02 14:57:00,75.4,55.5,29.80,ESE,108,1.0,1.0,50,0.00,,,0.00,Wunderground v.1.15,2013-08-02 19:57:00,
2013-08-02 15:02:00,74.8,57.0,29.80,East,79,0.0,1.0,54,0.00,,,0.00,Wunderground v.1.15,2013-08-02 20:02:00,
2013-08-02 15:07:00,74.0,56.3,29.80,ENE,76,1.0,2.0,54,0.00,,,0.00,Wunderground v.1.15,2013-08-02 20:07:00,
2013-08-02 15:12:00,74.0,56.3,29.80,WSW,243,1.0,1.0,54,0.00,,,0.00,Wunderground v.1.15,2013-08-02 20:12:00,
2013-08-02 15:17:00,74.4,56.2,29.80,East,91,1.0,2.0,53,0.00,,,0.00,Wunderground v.1.15,2013-08-02 20:17:00,
2013-08-02 15:22:00,74.6,56.9,29.80,SE,139,0.0,1.0,54,0.00,,,0.00,Wunderground v.1.15,2013-08-02 20:22:00,
2013-08-02 15:27:00,74.5,57.8,29.80,NE,45,0.0,2.0,56,0.00,,,0.00,Wunderground v.1.15,2013-08-02 20:27:00,
2013-08-02 15:32:00,74.1,56.9,29.80,WSW,250,1.0,4.0,55,0.00,,,0.00,Wunderground v.1.15,2013-08-02 20:32:00,
2013-08-02 15:38:00,74.1,56.4,29.80,SSW,212,1.0,4.0,54,0.00,,,0.00,Wunderground v.1.15,2013-08-02 20:38:00,
2013-08-02 15:43:00,74.0,56.3,29.80,West,259,1.0,2.0,54,0.00,,,0.00,Wunderground v.1.15,2013-08-02 20:43:00,
2013-08-02 15:48:00,73.9,57.7,29.80,WSW,237,1.0,2.0,57,0.00,,,0.00,Wunderground v.1.15,2013-08-02 20:48:00,
2013-08-02 15:53:00,74.0,56.8,29.80,SE,143,1.0,1.0,55,0.00,,,0.00,Wunderground v.1.15,2013-08-02 20:53:00,
2013-08-02 15:58:00,74.1,58.4,29.80,East,91,0.0,1.0,58,0.00,,,0.00,Wunderground v.1.15,2013-08-02 20:58:00,
2013-08-02 16:04:00,74.1,59.8,29.80,East,86,0.0,1.0,61,0.00,,,0.00,Wunderground v.1.15,2013-08-02 21:04:00,
2013-08-02 16:09:00,74.4,57.7,29.80,West,259,0.0,1.0,56,0.00,,,0.00,Wunderground v.1.15,2013-08-02 21:09:00,
2013-08-02 16:14:00,74.4,58.2,29.80,SW,228,1.0,2.0,57,0.00,,,0.00,Wunderground v.1.15,2013-08-02 21:14:00,
2013-08-02 16:19:00,74.9,60.5,29.80,East,79,1.0,1.0,61,0.00,,,0.00,Wunderground v.1.15,2013-08-02 21:19:00,
2013-08-02 16:24:00,74.9,59.6,29.80,East,99,1.0,1.0,59,0.00,,,0.00,Wunderground v.1.15,2013-08-02 21:24:00,
2013-08-02 16:30:00,74.7,58.0,29.80,ESE,104,1.0,1.0,56,0.00,,,0.00,Wunderground v.1.15,2013-08-02 21:30:00,
2013-08-02 16:35:00,74.5,58.8,29.80,WSW,257,0.0,1.0,58,0.00,,,0.00,Wunderground v.1.15,2013-08-02 21:35:00,
2013-08-02 16:41:00,74.1,56.9,29.80,WSW,244,0.0,2.0,55,0.00,,,0.00,Wunderground v.1.15,2013-08-02 21:41:00,
2013-08-02 16:46:00,73.6,56.4,29.80,WNW,284,1.0,2.0,55,0.00,,,0.00,Wunderground v.1.15,2013-08-02 21:46:00,
2013-08-02 16:51:00,73.4,58.7,29.80,SW,222,1.0,1.0,60,0.00,,,0.00,Wunderground v.1.15,2013-08-02 21:51:00,
2013-08-02 16:57:00,73.6,58.4,29.80,WSW,253,0.0,1.0,59,0.00,,,0.00,Wunderground v.1.15,2013-08-02 21:57:00,
2013-08-02 17:02:00,73.9,56.7,29.80,WSW,255,1.0,2.0,55,0.00,,,0.00,Wunderground v.1.15,2013-08-02 22:02:00,
2013-08-02 17:07:00,74.2,57.0,29.80,West,262,1.0,3.0,55,0.00,,,0.00,Wunderground v.1.15,2013-08-02 22:07:00,
2013-08-02 17:12:00,74.0,57.3,29.80,WSW,248,1.0,3.0,56,0.00,,,0.00,Wunderground v.1.15,2013-08-02 22:12:00,
2013-08-02 17:17:00,73.6,56.4,29.80,WSW,255,1.0,3.0,55,0.00,,,0.00,Wunderground v.1.15,2013-08-02 22:17:00,
2013-08-02 17:22:00,73.5,55.3,29.81,WSW,238,1.0,2.0,53,0.00,,,0.00,Wunderground v.1.15,2013-08-02 22:22:00,
2013-08-02 17:28:00,74.1,55.3,29.80,West,273,1.0,3.0,52,0.00,,,0.00,Wunderground v.1.15,2013-08-02 22:28:00,
2013-08-02 17:33:00,74.3,56.6,29.81,WSW,258,1.0,1.0,54,0.00,,,0.00,Wunderground v.1.15,2013-08-02 22:33:00,
2013-08-02 17:38:00,74.0,54.7,29.81,ESE,104,0.0,1.0,51,0.00,,,0.00,Wunderground v.1.15,2013-08-02 22:38:00,
2013-08-02 17:44:00,73.9,58.2,29.81,NW,312,1.0,2.0,58,0.00,,,0.00,Wunderground v.1.15,2013-08-02 22:44:00,
2013-08-02 17:49:00,73.8,56.6,29.81,NE,47,1.0,1.0,55,0.00,,,0.00,Wunderground v.1.15,2013-08-02 22:49:00,
2013-08-02 17:54:00,73.9,56.2,29.81,East,87,0.0,1.0,54,0.00,,,0.00,Wunderground v.1.15,2013-08-02 22:54:00,
2013-08-02 17:59:00,73.9,56.7,29.81,SW,224,1.0,1.0,55,0.00,,,0.00,Wunderground v.1.15,2013-08-02 22:59:00,
2013-08-02 18:04:00,74.6,53.6,29.81,WNW,296,1.0,1.0,48,0.00,,,0.00,Wunderground v.1.15,2013-08-02 23:04:00,
2013-08-02 18:09:00,75.2,54.7,29.81,SE,134,0.0,2.0,49,0.00,,,0.00,Wunderground v.1.15,2013-08-02 23:09:00,
2013-08-02 18:15:00,74.8,55.5,29.81,East,101,1.0,2.0,51,0.00,,,0.00,Wunderground v.1.15,2013-08-02 23:15:00,
2013-08-02 18:20:00,74.3,55.0,29.81,East,86,1.0,1.0,51,0.00,,,0.00,Wunderground v.1.15,2013-08-02 23:20:00,
2013-08-02 18:25:00,73.7,55.5,29.82,North,11,1.0,4.0,53,0.00,,,0.00,Wunderground v.1.15,2013-08-02 23:25:00,
2013-08-02 18:30:00,73.5,54.8,29.81,ESE,104,1.0,1.0,52,0.00,,,0.00,Wunderground v.1.15,2013-08-02 23:30:00,
2013-08-02 18:35:00,73.3,55.1,29.82,WSW,243,0.0,2.0,53,0.00,,,0.00,Wunderground v.1.15,2013-08-02 23:35:00,
2013-08-02 18:41:00,73.5,55.8,29.82,WSW,243,0.0,1.0,54,0.00,,,0.00,Wunderground v.1.15,2013-08-02 23:41:00,
2013-08-02 18:46:00,73.5,55.3,29.81,WSW,238,1.0,2.0,53,0.00,,,0.00,Wunderground v.1.15,2013-08-02 23:46:00,
2013-08-02 18:51:00,73.4,55.7,29.82,SW,222,0.0,1.0,54,0.00,,,0.00,Wunderground v.1.15,2013-08-02 23:51:00,
2013-08-02 18:56:00,73.5,56.3,29.82,WSW,250,0.0,1.0,55,0.00,,,0.00,Wunderground v.1.15,2013-08-02 23:56:00,
2013-08-02 19:01:00,73.6,55.4,29.82,West,273,1.0,1.0,53,0.00,,,0.00,Wunderground v.1.15,2013-08-03 00:01:00,
2013-08-02 19:06:00,73.6,55.9,29.82,WSW,237,1.0,1.0,54,0.00,,,0.00,Wunderground v.1.15,2013-08-03 00:06:00,
2013-08-02 19:12:00,73.6,56.4,29.82,South,191,0.0,1.0,55,0.00,,,0.00,Wunderground v.1.15,2013-08-03 00:12:00,
2013-08-02 19:17:00,73.2,55.6,29.82,South,191,0.0,1.0,54,0.00,,,0.00,Wunderground v.1.15,2013-08-03 00:17:00,
2013-08-02 19:22:00,72.7,55.6,29.82,SSE,167,0.0,1.0,55,0.00,,,0.00,Wunderground v.1.15,2013-08-03 00:22:00,
2013-08-02 19:27:00,72.4,55.8,29.82,SSE,167,0.0,1.0,56,0.00,,,0.00,Wunderground v.1.15,2013-08-03 00:27:00,
2013-08-02 19:32:00,72.2,56.1,29.83,SSE,167,0.0,1.0,57,0.00,,,0.00,Wunderground v.1.15,2013-08-03 00:32:00,
2013-08-02 19:38:00,71.7,56.1,29.83,SSE,167,0.0,1.0,58,0.00,,,0.00,Wunderground v.1.15,2013-08-03 00:38:00,
2013-08-02 19:43:00,71.3,56.7,29.83,SSE,167,0.0,1.0,60,0.00,,,0.00,Wunderground v.1.15,2013-08-03 00:43:00,
2013-08-02 19:48:00,70.9,57.7,29.83,SSE,168,0.0,1.0,63,0.00,,,0.00,Wunderground v.1.15,2013-08-03 00:48:00,
2013-08-02 19:53:00,70.5,57.3,29.83,SSE,167,0.0,1.0,63,0.00,,,0.00,Wunderground v.1.15,2013-08-03 00:53:00,
2013-08-02 19:58:00,70.0,56.8,29.83,SSE,167,0.0,1.0,63,0.00,,,0.00,Wunderground v.1.15,2013-08-03 00:58:00,
2013-08-02 20:03:00,69.5,57.2,29.83,SSE,167,0.0,1.0,65,0.00,,,0.00,Wunderground v.1.15,2013-08-03 01:03:00,
2013-08-02 20:08:00,69.2,57.4,29.83,SSE,167,0.0,1.0,66,0.00,,,0.00,Wunderground v.1.15,2013-08-03 01:08:00,
2013-08-02 20:13:00,68.7,57.7,29.83,SSE,167,0.0,1.0,68,0.00,,,0.00,Wunderground v.1.15,2013-08-03 01:13:00,
2013-08-02 20:18:00,68.0,57.0,29.83,SSE,167,0.0,1.0,68,0.00,,,0.00,Wunderground v.1.15,2013-08-03 01:18:00,
2013-08-02 20:23:00,67.5,57.0,29.83,SSE,167,0.0,1.0,69,0.00,,,0.00,Wunderground v.1.15,2013-08-03 01:23:00,
2013-08-02 20:28:00,67.1,57.4,29.83,SSE,167,0.0,1.0,71,0.00,,,0.00,Wunderground v.1.15,2013-08-03 01:28:00,
2013-08-02 20:34:00,66.6,56.9,29.83,SSE,168,0.0,1.0,71,0.00,,,0.00,Wunderground v.1.15,2013-08-03 01:34:00,
2013-08-02 20:39:00,66.4,56.7,29.83,SSE,167,0.0,1.0,71,0.00,,,0.00,Wunderground v.1.15,2013-08-03 01:39:00,
2013-08-02 20:44:00,66.1,56.8,29.83,SSE,167,0.0,1.0,72,0.00,,,0.00,Wunderground v.1.15,2013-08-03 01:44:00,
2013-08-02 20:49:00,65.7,56.4,29.83,SSE,167,0.0,1.0,72,0.00,,,0.00,Wunderground v.1.15,2013-08-03 01:49:00,
2013-08-02 20:54:00,65.4,56.1,29.84,SSE,168,0.0,1.0,72,0.00,,,0.00,Wunderground v.1.15,2013-08-03 01:54:00,
2013-08-02 21:00:00,65.2,56.7,29.84,SSE,167,0.0,1.0,74,0.00,,,0.00,Wunderground v.1.15,2013-08-03 02:00:00,
2013-08-02 21:05:00,64.9,56.8,29.84,SSE,167,0.0,1.0,75,0.00,,,0.00,Wunderground v.1.15,2013-08-03 02:05:00,
2013-08-02 21:10:00,64.4,56.3,29.85,SSE,167,0.0,1.0,75,0.00,,,0.00,Wunderground v.1.15,2013-08-03 02:10:00,
2013-08-02 21:15:00,64.1,56.7,29.85,SSE,167,0.0,1.0,77,0.00,,,0.00,Wunderground v.1.15,2013-08-03 02:15:00,
2013-08-02 21:20:00,63.9,56.2,29.85,SSE,167,0.0,1.0,76,0.00,,,0.00,Wunderground v.1.15,2013-08-03 02:20:00,
2013-08-02 21:26:00,63.8,57.2,29.85,SSE,168,0.0,1.0,79,0.00,,,0.00,Wunderground v.1.15,2013-08-03 02:26:00,
2013-08-02 21:31:00,63.6,57.3,29.86,SSE,167,0.0,1.0,80,0.00,,,0.00,Wunderground v.1.15,2013-08-03 02:31:00,
2013-08-02 21:36:00,63.3,57.0,29.86,SSE,167,0.0,1.0,80,0.00,,,0.00,Wunderground v.1.15,2013-08-03 02:36:00,
2013-08-02 21:41:00,63.3,57.4,29.86,SSE,167,0.0,1.0,81,0.00,,,0.00,Wunderground v.1.15,2013-08-03 02:41:00,
2013-08-02 21:46:00,63.1,57.2,29.86,SSE,167,0.0,1.0,81,0.00,,,0.00,Wunderground v.1.15,2013-08-03 02:46:00,
2013-08-02 21:52:00,63.0,57.4,29.86,SSE,167,0.0,1.0,82,0.00,,,0.00,Wunderground v.1.15,2013-08-03 02:52:00,
2013-08-02 21:57:00,62.7,57.5,29.86,SSE,167,0.0,1.0,83,0.00,,,0.00,Wunderground v.1.15,2013-08-03 02:57:00,
2013-08-02 22:02:00,62.2,56.6,29.86,SSE,168,0.0,1.0,82,0.00,,,0.00,Wunderground v.1.15,2013-08-03 03:02:00,
2013-08-02 22:07:00,61.9,56.0,29.87,SSE,168,0.0,1.0,81,0.00,,,0.00,Wunderground v.1.15,2013-08-03 03:07:00,
2013-08-02 22:13:00,62.0,56.4,29.87,SSE,167,0.0,1.0,82,0.00,,,0.00,Wunderground v.1.15,2013-08-03 03:13:00,
2013-08-02 22:19:00,62.0,56.8,29.87,SSE,167,0.0,1.0,83,0.00,,,0.00,Wunderground v.1.15,2013-08-03 03:19:00,
2013-08-02 22:24:00,62.0,57.1,29.87,SSE,167,0.0,1.0,84,0.00,,,0.00,Wunderground v.1.15,2013-08-03 03:24:00,
2013-08-02 22:29:00,62.0,57.1,29.88,SSE,167,0.0,1.0,84,0.00,,,0.00,Wunderground v.1.15,2013-08-03 03:29:00,
2013-08-02 22:34:00,62.0,57.4,29.88,SSE,167,0.0,1.0,85,0.00,,,0.00,Wunderground v.1.15,2013-08-03 03:34:00,
2013-08-02 22:39:00,61.8,57.2,29.88,SSE,167,0.0,1.0,85,0.00,,,0.00,Wunderground v.1.15,2013-08-03 03:39:00,
2013-08-02 22:45:00,61.7,57.1,29.88,SSE,167,0.0,1.0,85,0.00,,,0.00,Wunderground v.1.15,2013-08-03 03:45:00,
2013-08-02 22:50:00,61.5,56.9,29.88,SSE,168,0.0,1.0,85,0.00,,,0.00,Wunderground v.1.15,2013-08-03 03:50:00,
2013-08-02 22:55:00,61.3,56.8,29.89,SSE,167,0.0,1.0,85,0.00,,,0.00,Wunderground v.1.15,2013-08-03 03:55:00,
2013-08-02 23:00:00,61.2,57.0,29.89,SSE,167,0.0,1.0,86,0.00,,,0.00,Wunderground v.1.15,2013-08-03 04:00:00,
2013-08-02 23:01:00,61.2,57.0,29.89,SSE,167,0.0,1.0,86,0.00,,,0.00,Wunderground v.1.15,2013-08-03 04:01:00,
2013-08-02 23:02:00,61.2,57.0,29.89,SSE,167,0.0,1.0,86,0.00,,,0.00,Wunderground v.1.15,2013-08-03 04:02:00,
2013-08-02 23:03:00,61.2,57.0,29.89,SSE,167,0.0,1.0,86,0.00,,,0.00,Wunderground v.1.15,2013-08-03 04:03:00,
2013-08-02 23:04:00,61.2,57.0,29.89,SSE,167,0.0,1.0,86,0.00,,,0.00,Wunderground v.1.15,2013-08-03 04:04:00,
2013-08-02 23:09:00,61.1,57.2,29.89,SSE,168,0.0,1.0,87,0.00,,,0.00,Wunderground v.1.15,2013-08-03 04:09:00,
2013-08-02 23:12:00,61.0,56.8,29.89,SSE,167,0.0,1.0,86,0.00,,,0.00,Wunderground v.1.15,2013-08-03 04:12:00,
2013-08-02 23:17:00,60.8,56.9,29.89,SSE,167,0.0,1.0,87,0.00,,,0.00,Wunderground v.1.15,2013-08-03 04:17:00,
2013-08-02 23:22:00,60.6,56.7,29.89,SSE,168,0.0,1.0,87,0.00,,,0.00,Wunderground v.1.15,2013-08-03 04:22:00,
2013-08-02 23:28:00,60.4,56.5,29.88,SSE,167,0.0,1.0,87,0.00,,,0.00,Wunderground v.1.15,2013-08-03 04:28:00,
2013-08-02 23:32:00,60.2,56.3,29.88,SSE,167,0.0,1.0,87,0.00,,,0.00,Wunderground v.1.15,2013-08-03 04:32:00,
2013-08-02 23:38:00,60.1,56.2,29.88,SSE,167,0.0,1.0,87,0.00,,,0.00,Wunderground v.1.15,2013-08-03 04:38:00,
2013-08-02 23:43:00,60.0,56.4,29.88,SSE,167,0.0,1.0,88,0.00,,,0.00,Wunderground v.1.15,2013-08-03 04:43:00,
2013-08-02 23:48:00,59.9,56.3,29.88,SSE,167,0.0,1.0,88,0.00,,,0.00,Wunderground v.1.15,2013-08-03 04:48:00,
2013-08-02 23:53:00,59.8,56.2,29.89,SSE,167,0.0,1.0,88,0.00,,,0.00,Wunderground v.1.15,2013-08-03 04:53:00,
2013-08-02 23:58:00,59.7,56.1,29.89,SSE,167,0.0,1.0,88,0.00,,,0.00,Wunderground v.1.15,2013-08-03 04:58:00,